View from above orbital plane
|
View from above satellite
|
Ground track
|
The orbit data is extracted from the following two-line orbital elements,
1 19119U 88039A 21061.49926035 -.00000198 00000-0 -77597-4 0 9996
2 19119 71.0038 137.5082 0010806 170.3466 201.1224 14.15169734693696
Epoch (UTC): | 02 March 2021 11:58:56 |
Eccentricity: | 0.0010806 |
inclination: | 71.0038° |
perigee height: | 834 km |
apogee height: | 849 km |
right ascension of ascending node: | 137.5082° |
argument of perigee: | 170.3466° |
revolutions per day: | 14.15169734 |
mean anomaly at epoch: | 201.1224° |
orbit number at epoch: | 69369 |
The dashed part of the orbit path shows where the satellite is in the earth's shadow,
|
|